Home > Weather > Milwaukee > Past weeks

Flag for USA Past Weather in Milwaukee, Wisconsin, USA — Yesterday and Last 2 Weeks

Now
79 °F

Broken clouds.


Feels Like: 79 °F
Forecast: 59 / 73 °F
Wind: No wind

Location: Milwaukee / Timmerman

Current Time: May 24, 2016 at 8:35:14 PM

Latest Report: May 24, 2016 at 7:45 PM


Visibility: 10 mi

Pressure: 29.93 "Hg

Humidity: 45%

Dew Point: 55 °F

Location of MilwaukeeLocation

Past Weather in Milwaukee — Graph

°F

Milwaukee Temperature Yesterday

Maximum temperature yesterday: 81 °F (at 1:45 PM)
Minimum temperature yesterday: 46 °F (at 4:55 AM)
Average temperature yesterday: 61 °F

High & Low Weather Summary for the Past Weeks

 TemperatureHumidityPressure
High82 °F (May 24, 12:45 PM)94% (May 11, 8:45 AM)30.29 "Hg (May 11, 8:45 AM)
Low32 °F (May 15, 3:15 AM)15% (May 21, 2:45 PM)29.86 "Hg (May 13, 11:35 PM)
Average52 °F60%30.06 "Hg
* Reported May 9 5:45 PM — May 24 5:45 PM, Milwaukee, Weather by CustomWeather, © 2016

Note: Actual official high and low records may vary slightly from our data, if they occured in-between our weather recording intervals... More about our weather records

Advertising

Milwaukee Weather History for the Previous 24 Hours

Scroll right to see more
 ConditionsComfort  
Time TempWeatherWind HumidityBarometerVisibility
5:45 PM
Tue, May 24
79 °FBroken clouds.No wind45%29.92 "Hg10 mi
4:45 PM81 °FSunny.10 mph42%29.92 "Hg10 mi
3:45 PM82 °FSunny.8 mph45%29.92 "Hg10 mi
2:45 PM81 °FBroken clouds.14 mph37%29.93 "Hg10 mi
1:45 PM81 °FBroken clouds.14 mph39%29.94 "Hg10 mi
12:45 PM82 °FScattered clouds.12 mph37%29.95 "Hg10 mi
11:45 AM81 °FSunny.14 mph37%29.95 "Hg10 mi
10:45 AM79 °FPartly sunny.14 mph37%29.97 "Hg10 mi
9:45 AM75 °FSunny.10 mph39%29.96 "Hg10 mi
8:45 AM73 °FSunny.7 mph41%29.96 "Hg10 mi
7:45 AM66 °FSunny.No wind49%29.98 "Hg10 mi
6:35 AM57 °FSunny.No wind59%29.97 "Hg10 mi
6:15 AM55 °FClear.3 mph63%29.96 "Hg10 mi
5:55 AM55 °FClear.3 mph63%29.95 "Hg10 mi
5:35 AM54 °FClear.5 mph63%29.95 "Hg10 mi
5:15 AM54 °FClear.5 mph63%29.95 "Hg10 mi
4:55 AM54 °FClear.No wind58%29.95 "Hg10 mi
4:35 AM54 °FClear.3 mph63%29.95 "Hg10 mi
4:15 AM55 °FClear.3 mph55%29.94 "Hg10 mi
3:55 AM55 °FClear.3 mph51%29.94 "Hg10 mi
3:35 AM55 °FClear.No wind55%29.94 "Hg10 mi
3:15 AM55 °FClear.No wind47%29.93 "Hg10 mi
2:55 AM59 °FClear.No wind42%29.92 "Hg10 mi
2:15 AM61 °FClear.No wind36%29.92 "Hg10 mi
1:55 AM61 °FClear.5 mph36%29.92 "Hg10 mi
1:35 AM61 °FClear.5 mph36%29.92 "Hg10 mi
1:15 AM61 °FClear.6 mph36%29.92 "Hg10 mi
12:55 AM63 °FClear.7 mph32%29.92 "Hg10 mi
12:35 AM63 °FClear.6 mph32%29.92 "Hg10 mi
12:15 AM63 °FClear.7 mph32%29.92 "Hg10 mi
11:55 PM
Mon, May 23
63 °FClear.7 mph32%29.92 "Hg10 mi
11:35 PM63 °FClear.6 mph32%29.91 "Hg10 mi
11:15 PM64 °FClear.8 mph30%29.92 "Hg10 mi
10:55 PM64 °FClear.5 mph30%29.92 "Hg10 mi
10:35 PM66 °FClear.8 mph26%29.92 "Hg10 mi
10:15 PM68 °FClear.8 mph24%29.92 "Hg10 mi
9:55 PM68 °FClear.9 mph24%29.91 "Hg10 mi
9:35 PM68 °FClear.9 mph24%29.91 "Hg10 mi
9:15 PM68 °FSunny.9 mph24%29.90 "Hg10 mi
8:45 PM68 °FSunny.10 mph24%29.91 "Hg10 mi
Weather by CustomWeather, © 2016

See weather overviewHow to use our weather pages